Weather History for White Mountain, AK

Change the Weather History Date:

Tuesday, May 6, 2014

  Actual Average (PAKK) Record (PAKK)
Temperature  
Mean Temperature 30 °F -  
Max Temperature 35 °F 35 °F 48 °F (2003)
Min Temperature 26 °F 23 °F 6 °F (2001)
Degree Days  
Heating Degree Days 34    
Moisture  
Dew Point 27 °F    
Average Humidity 90    
Maximum Humidity 100    
Minimum Humidity 72    
Precipitation  
Precipitation 0.01 in - - ()
Sea Level Pressure  
Sea Level Pressure 29.73 in    
Wind  
Wind Speed 8 mph (South)    
Max Wind Speed 13 mph    
Max Gust Speed 17 mph    
Visibility 5 miles    
Events Fog , Rain , Snow    
Averages and records for this station are not official NWS values.
T = Trace of Precipitation, MM = Missing Value Source: NWS Daily Summary

Daily Weather History Graph

Daily Weather History Graph

Search for Another Location

Airport:

Trip Planner

Search our weather history database for the weather conditions in past years. The results will help you decide how hot, cold, wet, or windy it might be!

Date:

Astronomy

May. 06, 2014 Rise Set
Actual Time 6:03 AM AKDT 11:39 PM AKDT
Civil Twilight 4:41 AM AKDT 1:04 AM AKDT
Nautical Twilight Sun does not rise Sun does not rise
Astronomical Twilight Sun does not rise Sun does not rise
Moon 1:08 PM AKDT (5/6) 4:32 AM AKDT (5/6)
Length of Visible Light 20h 23m
Length of Day
17h 36m
Waxing Crescent, 47% of the Moon is Illuminated
May 6
Waxing Crescent
May 6
First Quarter
May 14
Full
May 21
Last Quarter
May 28
New

Hourly Weather History & Observations

Time (AKDT) Temp. Windchill Dew Point Humidity Pressure Visibility Wind Dir Wind Speed Gust Speed Precip Events Conditions
3:52 AM 26.6 °F 20.0 °F 24.8 °F 93% 29.77 in 2.0 mi SE 5.8 mph - 0.00 in Snow Light Snow
3:57 AM 27.0 °F 21.6 °F 25.0 °F 92% 29.81 in 1.8 mi SE 4.6 mph - 0.00 in Snow Light Snow
4:00 AM 26.6 °F 20.0 °F 24.8 °F 93% 29.77 in 2.0 mi SE 5.8 mph - 0.01 in Snow Light Snow
4:10 AM 26.6 °F 20.0 °F 24.8 °F 93% 29.76 in 3.0 mi SE 5.8 mph - 0.01 in Snow Light Snow
4:40 AM 26.6 °F 18.2 °F 24.8 °F 93% 29.76 in 2.5 mi SE 8.1 mph - 0.01 in Snow Light Snow
4:58 AM 27.0 °F 18.0 °F 25.0 °F 92% 29.79 in 2.5 mi SE 9.2 mph - 0.01 in Snow Light Snow
5:12 AM 26.6 °F 17.5 °F 26.6 °F 100% 29.75 in 2.0 mi SE 9.2 mph - 0.00 in Snow Light Snow
5:42 AM 26.6 °F 17.5 °F 26.6 °F 100% 29.75 in 1.5 mi SE 9.2 mph - 0.00 in Snow Light Snow
5:50 AM 26.6 °F 17.5 °F 26.6 °F 100% 29.74 in 1.0 mi SE 9.2 mph - 0.00 in Snow Light Snow
6:21 AM 28.4 °F 20.4 °F 26.6 °F 93% 29.74 in 2.0 mi SE 8.1 mph - 0.00 in Snow Light Snow
6:33 AM 28.4 °F 19.7 °F 26.6 °F 93% 29.73 in 3.0 mi SE 9.2 mph - 0.00 in Snow Light Snow
6:49 AM 28.4 °F 19.7 °F 26.6 °F 93% 29.73 in 2.0 mi SE 9.2 mph - 0.00 in Snow Light Snow
6:58 AM 28.0 °F 18.6 °F 27.0 °F 96% 29.77 in 2.0 mi SE 10.4 mph - 0.00 in Snow Light Snow
7:16 AM 28.4 °F 19.1 °F 26.6 °F 93% 29.72 in 1.8 mi SE 10.4 mph - 0.00 in Snow Light Snow
7:36 AM 28.4 °F 19.1 °F 26.6 °F 93% 29.72 in 1.0 mi SSE 10.4 mph - 0.00 in Snow Light Snow
7:42 AM 28.4 °F 19.7 °F 26.6 °F 93% 29.72 in 1.0 mi SSE 9.2 mph - 0.00 in Snow Light Snow
7:58 AM 28.0 °F 19.3 °F 27.0 °F 96% 29.75 in 1.0 mi SSE 9.2 mph - 0.00 in Snow Light Snow
8:04 AM 28.4 °F 19.1 °F 26.6 °F 93% 29.71 in 1.2 mi SSE 10.4 mph - 0.00 in Snow Light Snow
8:09 AM 28.4 °F 19.1 °F 28.4 °F 100% 29.71 in 1.0 mi SSE 10.4 mph - 0.00 in Snow Light Snow
8:52 AM 28.4 °F 19.7 °F 28.4 °F 100% 29.71 in 1.0 mi SSE 9.2 mph - 0.00 in Snow Light Snow
8:56 AM 28.4 °F 20.4 °F 28.4 °F 100% 29.70 in 1.2 mi SSE 8.1 mph - 0.00 in Snow Light Snow
8:58 AM 28.9 °F 19.8 °F 28.0 °F 96% 29.74 in 1.2 mi SSE 10.4 mph - 0.00 in Snow Light Snow
9:06 AM 28.4 °F 19.1 °F 28.4 °F 100% 29.70 in 1.0 mi SSE 10.4 mph - 0.00 in Snow Light Snow
9:19 AM 30.2 °F 21.3 °F 28.4 °F 93% 29.70 in 0.8 mi South 10.4 mph - 0.00 in Snow Light Snow
9:31 AM 30.2 °F 21.3 °F 28.4 °F 93% 29.70 in 0.5 mi South 10.4 mph - 0.00 in Fog , Snow Light Snow
9:35 AM 30.2 °F 20.8 °F 28.4 °F 93% 29.70 in 0.8 mi South 11.5 mph - 0.00 in Snow Light Snow
9:46 AM 30.2 °F 21.3 °F 28.4 °F 93% 29.70 in 0.5 mi South 10.4 mph - 0.00 in Fog , Snow Light Snow
9:58 AM 30.0 °F 20.5 °F 30.0 °F 100% 29.73 in 0.5 mi South 11.5 mph - 0.00 in Fog , Snow Light Snow
10:07 AM 30.2 °F 21.9 °F 30.2 °F 100% 29.70 in 0.8 mi South 9.2 mph - 0.00 in Snow Light Snow
10:24 AM 30.2 °F 21.9 °F 30.2 °F 100% 29.70 in 1.2 mi South 9.2 mph - 0.00 in Snow Light Snow
10:30 AM 30.2 °F 21.9 °F 30.2 °F 100% 29.70 in 2.5 mi South 9.2 mph - 0.00 in Snow Light Snow
10:34 AM 30.2 °F 23.4 °F 30.2 °F 100% 29.70 in 4.0 mi South 6.9 mph - 0.00 in Snow Light Snow
10:58 AM 32.0 °F 28.7 °F 30.9 °F 96% 29.74 in 9.0 mi SSW 3.5 mph - 0.00 in   Overcast
11:04 AM 32.0 °F 25.6 °F 30.2 °F 93% 29.70 in 7.0 mi SSW 6.9 mph - 0.00 in   Overcast
12:22 PM 33.8 °F 26.4 °F 28.4 °F 81% 29.70 in 10.0 mi SSW 9.2 mph - 0.00 in Rain Light Rain
12:29 PM 33.8 °F 27.0 °F 28.4 °F 81% 29.70 in 10.0 mi South 8.1 mph - 0.00 in Rain Light Rain
12:45 PM 35.6 °F 27.5 °F 28.4 °F 75% 29.70 in 8.0 mi WSW 11.5 mph - 0.00 in   Overcast
12:58 PM 33.1 °F 24.4 °F 27.0 °F 78% 29.74 in 9.0 mi WSW 11.5 mph - 0.00 in   Overcast
1:58 PM 33.1 °F 24.9 °F 26.1 °F 75% 29.75 in 9.0 mi WSW 10.4 mph - N/A   Overcast
2:58 PM 33.1 °F 25.5 °F 25.0 °F 72% 29.75 in 9.0 mi SW 9.2 mph - N/A   Overcast
3:58 PM 32.0 °F 24.8 °F 25.0 °F 75% 29.75 in 9.0 mi SW 8.1 mph - N/A   Overcast
4:40 PM 33.8 °F 26.4 °F 26.6 °F 75% 29.72 in 9.0 mi South 9.2 mph - N/A   Overcast
4:58 PM 32.0 °F 23.6 °F 27.0 °F 82% 29.76 in 9.0 mi South 10.4 mph - N/A   Overcast
5:12 PM 32.0 °F 22.5 °F 26.6 °F 80% 29.72 in 8.0 mi SSW 12.7 mph - N/A   Overcast
5:58 PM 32.0 °F 23.0 °F 27.0 °F 82% 29.75 in 9.0 mi SSW 11.5 mph - N/A   Overcast
6:13 PM 32.0 °F 24.8 °F 26.6 °F 80% 29.72 in 9.0 mi SSW 8.1 mph 17.3 mph N/A   Overcast
6:27 PM 32.0 °F 25.6 °F 26.6 °F 80% 29.72 in 9.0 mi SW 6.9 mph - N/A   Overcast
6:58 PM 32.0 °F 23.6 °F 27.0 °F 82% 29.76 in 8.0 mi SW 10.4 mph - 0.00 in   Overcast
7:13 PM 32.0 °F 23.6 °F 26.6 °F 80% 29.73 in 9.0 mi SW 10.4 mph - 0.00 in   Overcast
7:35 PM 32.0 °F 23.6 °F 26.6 °F 80% 29.73 in 10.0 mi SW 10.4 mph - 0.00 in   Overcast
7:58 PM 32.0 °F 24.2 °F 27.0 °F 82% 29.76 in 8.0 mi SW 9.2 mph - 0.00 in Snow Light Snow
8:20 PM 33.8 °F 27.0 °F 28.4 °F 81% 29.73 in 10.0 mi WSW 8.1 mph - 0.00 in   Overcast
8:25 PM 33.8 °F 27.7 °F 28.4 °F 81% 29.73 in 10.0 mi SW 6.9 mph - 0.00 in   Overcast
8:58 PM 32.0 °F 24.8 °F 28.9 °F 88% 29.76 in 10.0 mi SW 8.1 mph - 0.00 in   Overcast
9:12 PM 30.2 °F 23.4 °F 28.4 °F 93% 29.73 in 10.0 mi SSW 6.9 mph - 0.00 in   Overcast
9:41 PM 32.0 °F 28.7 °F 28.4 °F 87% 29.73 in 9.0 mi South 3.5 mph - 0.00 in   Mostly Cloudy
9:58 PM 30.9 °F 27.5 °F 28.9 °F 92% 29.76 in 9.0 mi SSE 3.5 mph - 0.00 in   Partly Cloudy
10:44 PM 30.2 °F 25.4 °F 28.4 °F 93% 29.74 in 7.0 mi East 4.6 mph - 0.00 in Snow Light Snow
10:58 PM 30.0 °F - 28.0 °F 92% 29.78 in 6.0 mi Calm Calm - 0.00 in Snow Light Snow
11:23 PM 30.2 °F 26.7 °F 28.4 °F 93% 29.76 in 8.0 mi NNE 3.5 mph - 0.00 in   Overcast
11:58 PM 30.9 °F 22.8 °F 28.9 °F 92% 29.80 in 4.0 mi North 9.2 mph - 0.00 in Snow Light Snow